{"data":{"norad_id":58637,"intl_designator":"2023-203V","name":"STARLINK-31077","alt_names":[],"object_type":"PAYLOAD","status":"ACTIVE","operator":null,"country":"US","launch_date":"2023-12-23","launch_site_code":"AFETR","launch_vehicle":null,"mission":null,"orbit_class":"UNKNOWN","rcs_meters":null,"size_class":null,"mass_kg":null,"dimensions":null,"purposes":["comms"],"wikipedia_slug":null,"has_3d_model":false,"image_url":null,"decayed_at":null,"tle_current":{"epoch":"2026-05-24T23:07:40.401120Z","epoch_age_seconds":85038,"freshness":"FRESH","line1":"1 58637U 23203V   26144.96366205  .00003928  00000+0  15214-3 0  9990","line2":"2 58637  43.0018 356.5885 0001010 280.4110  79.6628 15.27590516136453","mean_motion":15.27590516,"eccentricity":0.000101,"inclination_deg":43.0018,"raan_deg":356.5885,"arg_perigee_deg":280.411,"mean_anomaly_deg":79.6628,"bstar":0.00015214,"rev_number":13645,"period_min":94.266099777226,"perigee_km":482.32463091782,"apogee_km":483.71058414854,"semimajor_km":6861.1546075332,"source":"CELESTRAK","updated_at":"2026-05-25T13:38:18.709051Z"}}}